LNI892 WAAA-WAMG

Flight info

Callsign LNI892
Flight time 1h 7m
Altitude 35000
Route VENRU W32 ENTEG
Aircraft B738/M-SDE2E3FGHIRWXY/LB1

Departure

Time 2026-05-05 02:59
Airport Sultan Hasanuddin International Airport (WAAA)

Arrival

Time 2026-05-05 04:07
Airport Jalaluddin Airport (WAMG)
Time Latitude Longitude Altitude Speed Heading
2026-05-05 02:40 -5.08249 119.54453 0 ft 0 kts 300°
2026-05-05 02:45 -5.08257 119.54465 38 ft 3 kts 300°
2026-05-05 02:46 -5.08267 119.54483 38 ft 3 kts 300°
2026-05-05 02:46 -5.08275 119.54498 36 ft 1 kts 289°
2026-05-05 02:46 -5.08277 119.54506 39 ft 1 kts 260°
2026-05-05 02:46 -5.08274 119.54515 39 ft 1 kts 233°
2026-05-05 02:47 -5.08269 119.54521 38 ft 1 kts 220°
2026-05-05 02:47 -5.08262 119.54526 36 ft 1 kts 214°
2026-05-05 02:47 -5.08259 119.54529 37 ft 0 kts 213°
2026-05-05 02:52 -5.08260 119.54528 37 ft 1 kts 212°
2026-05-05 02:53 -5.08286 119.54513 38 ft 7 kts 211°
2026-05-05 02:53 -5.08337 119.54483 40 ft 9 kts 211°
2026-05-05 02:53 -5.08391 119.54450 40 ft 9 kts 211°
2026-05-05 02:53 -5.08445 119.54418 40 ft 9 kts 211°
2026-05-05 02:54 -5.08501 119.54411 40 ft 9 kts 149°
2026-05-05 02:54 -5.08533 119.54462 38 ft 8 kts 121°
2026-05-05 02:54 -5.08562 119.54512 39 ft 8 kts 120°
2026-05-05 02:54 -5.08604 119.54546 41 ft 8 kts 168°
2026-05-05 02:55 -5.08656 119.54531 41 ft 8 kts 208°
2026-05-05 02:55 -5.08693 119.54510 40 ft 10 kts 210°
2026-05-05 02:55 -5.08757 119.54473 40 ft 12 kts 210°
2026-05-05 02:55 -5.08827 119.54432 40 ft 12 kts 210°
2026-05-05 02:56 -5.08896 119.54393 41 ft 11 kts 210°
2026-05-05 02:56 -5.08962 119.54354 39 ft 11 kts 210°
2026-05-05 02:56 -5.09027 119.54317 40 ft 11 kts 210°
2026-05-05 02:56 -5.09090 119.54282 40 ft 10 kts 203°
2026-05-05 02:57 -5.09157 119.54287 39 ft 10 kts 145°
2026-05-05 02:57 -5.09195 119.54343 41 ft 10 kts 121°
2026-05-05 02:57 -5.09224 119.54391 41 ft 1 kts 118°
2026-05-05 02:57 -5.09226 119.54403 41 ft 3 kts 85°
2026-05-05 02:58 -5.09210 119.54417 39 ft 3 kts 28°
2026-05-05 02:58 -5.09209 119.54418 39 ft 0 kts 29°
2026-05-05 02:58 -5.09085 119.54489 42 ft 55 kts 30°
2026-05-05 02:58 -5.08534 119.54807 40 ft 125 kts 30°
2026-05-05 02:59 -5.07610 119.55354 66 ft 180 kts 31°
2026-05-05 02:59 -5.06446 119.56037 518 ft 203 kts 30°
2026-05-05 02:59 -5.05206 119.56648 1591 ft 193 kts 19°
2026-05-05 02:59 -5.03921 119.56819 2509 ft 197 kts 349°
2026-05-05 03:00 -5.02519 119.56401 2866 ft 223 kts 346°
2026-05-05 03:00 -5.00907 119.56105 3111 ft 246 kts 354°
2026-05-05 03:00 -4.99178 119.55965 3662 ft 252 kts 358°
2026-05-05 03:00 -4.97414 119.55911 4297 ft 256 kts 360°
2026-05-05 03:01 -4.95626 119.55893 4962 ft 257 kts
2026-05-05 03:01 -4.93815 119.55877 5555 ft 263 kts
2026-05-05 03:01 -4.91953 119.55906 6061 ft 275 kts
2026-05-05 03:01 -4.90176 119.56630 6688 ft 281 kts 39°
2026-05-05 03:02 -4.88993 119.58180 7404 ft 284 kts 71°
2026-05-05 03:02 -4.88614 119.60119 8208 ft 286 kts 84°
2026-05-05 03:02 -4.88412 119.62123 8940 ft 292 kts 85°
2026-05-05 03:02 -4.88232 119.64160 9708 ft 295 kts 85°
2026-05-05 03:03 -4.88048 119.66229 10383 ft 303 kts 85°
2026-05-05 03:03 -4.87848 119.68413 10553 ft 327 kts 85°
2026-05-05 03:03 -4.87625 119.70754 10769 ft 346 kts 84°
2026-05-05 03:03 -4.87387 119.73195 11260 ft 355 kts 84°
2026-05-05 03:04 -4.87143 119.75659 11977 ft 356 kts 84°
2026-05-05 03:04 -4.86894 119.78134 12675 ft 358 kts 85°
2026-05-05 03:04 -4.86643 119.80631 13225 ft 364 kts 85°
2026-05-05 03:04 -4.86257 119.83158 13698 ft 371 kts 73°
2026-05-05 03:05 -4.85022 119.85437 14250 ft 377 kts 50°
2026-05-05 03:05 -4.83039 119.87151 14886 ft 378 kts 36°
2026-05-05 03:05 -4.80891 119.88687 15450 ft 382 kts 35°
2026-05-05 03:05 -4.78701 119.90227 15943 ft 387 kts 35°
2026-05-05 03:06 -4.76489 119.91784 16488 ft 389 kts 36°
2026-05-05 03:06 -4.74271 119.93355 17042 ft 392 kts 36°
2026-05-05 03:06 -4.72042 119.94945 17562 ft 395 kts 36°
2026-05-05 03:06 -4.69800 119.96553 18104 ft 397 kts 36°
2026-05-05 03:07 -4.67554 119.98170 18627 ft 400 kts 36°
2026-05-05 03:07 -4.65288 119.99805 19105 ft 403 kts 37°
2026-05-05 03:07 -4.63009 120.01452 19642 ft 404 kts 36°
2026-05-05 03:07 -4.60720 120.03107 20085 ft 408 kts 37°
2026-05-05 03:08 -4.58410 120.04777 20517 ft 411 kts 36°
2026-05-05 03:08 -4.56083 120.06458 21003 ft 413 kts 36°
2026-05-05 03:08 -4.53783 120.08121 21394 ft 416 kts 36°
2026-05-05 03:08 -4.51422 120.09827 21743 ft 420 kts 36°
2026-05-05 03:09 -4.49047 120.11543 22155 ft 421 kts 36°
2026-05-05 03:09 -4.46665 120.13264 22516 ft 425 kts 36°
2026-05-05 03:09 -4.44256 120.15004 22883 ft 427 kts 36°
2026-05-05 03:09 -4.41852 120.16741 23358 ft 427 kts 36°
2026-05-05 03:10 -4.39430 120.18491 23662 ft 431 kts 36°
2026-05-05 03:10 -4.36986 120.20256 23995 ft 434 kts 36°
2026-05-05 03:10 -4.34531 120.22029 24362 ft 436 kts 36°
2026-05-05 03:10 -4.32058 120.23815 24665 ft 440 kts 36°
2026-05-05 03:11 -4.29571 120.25611 24994 ft 442 kts 36°
2026-05-05 03:11 -4.27071 120.27415 25365 ft 443 kts 36°
2026-05-05 03:11 -4.24564 120.29225 25661 ft 446 kts 36°
2026-05-05 03:11 -4.22037 120.31049 25955 ft 448 kts 35°
2026-05-05 03:12 -4.19505 120.32876 26251 ft 451 kts 37°
2026-05-05 03:12 -4.16951 120.34720 26517 ft 454 kts 36°
2026-05-05 03:12 -4.14385 120.36572 26786 ft 456 kts 36°
2026-05-05 03:12 -4.11807 120.38432 27057 ft 458 kts 36°
2026-05-05 03:13 -4.09217 120.40302 27303 ft 460 kts 36°
2026-05-05 03:13 -4.06607 120.42187 27512 ft 464 kts 36°
2026-05-05 03:13 -4.03986 120.44077 27761 ft 466 kts 36°
2026-05-05 03:13 -4.01353 120.45977 28016 ft 467 kts 36°
2026-05-05 03:14 -3.98714 120.47880 28297 ft 468 kts 36°
2026-05-05 03:14 -3.96071 120.49787 28551 ft 469 kts 37°
2026-05-05 03:14 -3.93420 120.51698 28813 ft 470 kts 37°
2026-05-05 03:14 -3.90766 120.53613 29083 ft 470 kts 37°
2026-05-05 03:15 -3.88108 120.55529 29362 ft 470 kts 37°
2026-05-05 03:15 -3.85458 120.57440 29651 ft 470 kts 37°
2026-05-05 03:15 -3.82810 120.59350 29935 ft 469 kts 37°
2026-05-05 03:15 -3.80160 120.61260 30214 ft 468 kts 37°
2026-05-05 03:16 -3.77515 120.63166 30452 ft 469 kts 37°
2026-05-05 03:16 -3.74865 120.65077 30596 ft 471 kts 37°
2026-05-05 03:16 -3.72233 120.66975 30753 ft 473 kts 37°
2026-05-05 03:16 -3.69566 120.68897 30978 ft 473 kts 37°
2026-05-05 03:17 -3.66910 120.70811 31260 ft 471 kts 37°
2026-05-05 03:17 -3.64244 120.72732 31544 ft 470 kts 37°
2026-05-05 03:17 -3.61586 120.74648 31769 ft 470 kts 37°
2026-05-05 03:17 -3.58931 120.76561 31968 ft 471 kts 37°
2026-05-05 03:18 -3.56269 120.78479 32210 ft 471 kts 37°
2026-05-05 03:18 -3.53613 120.80392 32476 ft 470 kts 37°
2026-05-05 03:18 -3.50959 120.82304 32708 ft 470 kts 37°
2026-05-05 03:18 -3.48302 120.84219 32931 ft 470 kts 37°
2026-05-05 03:19 -3.42995 120.88041 33356 ft 471 kts 37°
2026-05-05 03:19 -3.40336 120.89956 33536 ft 471 kts 37°
2026-05-05 03:19 -3.37680 120.91869 33790 ft 470 kts 37°
2026-05-05 03:20 -3.35030 120.93777 34075 ft 468 kts 37°
2026-05-05 03:20 -3.32383 120.95683 34318 ft 468 kts 37°
2026-05-05 03:20 -3.29739 120.97587 34495 ft 469 kts 37°
2026-05-05 03:20 -3.27091 120.99494 34664 ft 470 kts 37°
2026-05-05 03:21 -3.24441 121.01402 34870 ft 469 kts 37°
2026-05-05 03:21 -3.21788 121.03312 34898 ft 471 kts 37°
2026-05-05 03:21 -3.16463 121.07146 34909 ft 470 kts 37°
2026-05-05 03:22 -3.11168 121.10957 34910 ft 468 kts 37°
2026-05-05 03:22 -3.06021 121.14921 34912 ft 466 kts 41°
2026-05-05 03:23 -3.01037 121.19071 34917 ft 466 kts 41°
2026-05-05 03:23 -2.96048 121.23231 34922 ft 468 kts 41°
2026-05-05 03:24 -2.91018 121.27380 34911 ft 469 kts 41°
2026-05-05 03:24 -2.85954 121.31536 34917 ft 472 kts 41°
2026-05-05 03:25 -2.80899 121.35681 34912 ft 475 kts 41°
2026-05-05 03:25 -2.75785 121.39876 34921 ft 476 kts 41°
2026-05-05 03:26 -2.70655 121.44085 34913 ft 478 kts 41°
2026-05-05 03:26 -2.65511 121.48305 34912 ft 478 kts 41°
2026-05-05 03:27 -2.60367 121.52524 34910 ft 478 kts 41°
2026-05-05 03:27 -2.55238 121.56731 34911 ft 476 kts 41°
2026-05-05 03:28 -2.50114 121.60933 34906 ft 476 kts 41°
2026-05-05 03:28 -2.45001 121.65128 34917 ft 475 kts 41°
2026-05-05 03:29 -2.39903 121.69328 34910 ft 474 kts 41°
2026-05-05 03:29 -2.34905 121.73631 34911 ft 473 kts 43°
2026-05-05 03:30 -2.29953 121.77953 34907 ft 472 kts 43°
2026-05-05 03:30 -2.25004 121.82255 34911 ft 471 kts 42°
2026-05-05 03:31 -2.20058 121.86537 34909 ft 470 kts 42°
2026-05-05 03:31 -2.15117 121.90807 34912 ft 469 kts 42°
2026-05-05 03:32 -2.10187 121.95067 34912 ft 468 kts 42°
2026-05-05 03:32 -2.05266 121.99321 34913 ft 468 kts 42°
2026-05-05 03:33 -2.00346 122.03574 34913 ft 468 kts 42°
2026-05-05 03:33 -1.95418 122.07832 34913 ft 468 kts 42°
2026-05-05 03:34 -1.90491 122.12091 34916 ft 468 kts 43°
2026-05-05 03:34 -1.85558 122.16353 34912 ft 469 kts 43°
2026-05-05 03:35 -1.80618 122.20621 34913 ft 469 kts 43°
2026-05-05 03:35 -1.75678 122.24890 34913 ft 470 kts 43°
2026-05-05 03:36 -1.70729 122.29165 34912 ft 470 kts 43°
2026-05-05 03:36 -1.65782 122.33438 34912 ft 470 kts 43°
2026-05-05 03:37 -1.60835 122.37712 34912 ft 470 kts 43°
2026-05-05 03:37 -1.55883 122.41989 34912 ft 470 kts 43°
2026-05-05 03:38 -1.50934 122.46264 34912 ft 470 kts 43°
2026-05-05 03:38 -1.45990 122.50533 34912 ft 470 kts 43°
2026-05-05 03:39 -1.41046 122.54803 34935 ft 469 kts 43°
2026-05-05 03:39 -1.36143 122.59036 34939 ft 469 kts 43°
2026-05-05 03:40 -1.31203 122.63302 34935 ft 469 kts 43°
2026-05-05 03:40 -1.26267 122.67564 34940 ft 469 kts 43°
2026-05-05 03:41 -1.21331 122.71826 34937 ft 469 kts 43°
2026-05-05 03:41 -1.16417 122.76068 34918 ft 459 kts 43°
2026-05-05 03:42 -1.14042 122.78116 34919 ft 444 kts 43°
2026-05-05 03:42 -1.11736 122.80105 34820 ft 433 kts 43°
2026-05-05 03:42 -1.09478 122.82055 34532 ft 427 kts 43°
2026-05-05 03:42 -1.07228 122.83998 33823 ft 431 kts 43°
2026-05-05 03:43 -1.04919 122.85996 32559 ft 449 kts 42°
2026-05-05 03:43 -1.02524 122.88067 31594 ft 459 kts 42°
2026-05-05 03:43 -1.00116 122.90145 31119 ft 455 kts 42°
2026-05-05 03:43 -0.97745 122.92190 30808 ft 447 kts 42°
2026-05-05 03:44 -0.96163 122.93555 30559 ft 443 kts 42°
2026-05-05 03:44 -0.93841 122.95559 30123 ft 439 kts 42°
2026-05-05 03:44 -0.90763 122.98100 29403 ft 430 kts 33°
2026-05-05 03:44 -0.88960 122.99011 28858 ft 430 kts 21°
2026-05-05 03:45 -0.86096 122.99681 28088 ft 431 kts
2026-05-05 03:45 -0.83108 122.99601 27630 ft 429 kts 357°
2026-05-05 03:45 -0.80136 122.99316 27105 ft 428 kts 355°
2026-05-05 03:45 -0.77186 122.98982 26640 ft 425 kts 355°
2026-05-05 03:46 -0.74254 122.98643 26163 ft 422 kts 355°
2026-05-05 03:46 -0.71341 122.98316 25691 ft 420 kts 355°
2026-05-05 03:46 -0.68451 122.98004 25225 ft 417 kts 356°
2026-05-05 03:46 -0.65576 122.97706 24774 ft 413 kts 356°
2026-05-05 03:47 -0.62727 122.97417 24313 ft 410 kts 356°
2026-05-05 03:47 -0.59894 122.97133 23857 ft 407 kts 356°
2026-05-05 03:47 -0.57087 122.96854 23408 ft 404 kts 356°
2026-05-05 03:47 -0.54296 122.96578 22958 ft 401 kts 356°
2026-05-05 03:48 -0.51525 122.96303 22512 ft 398 kts 356°
2026-05-05 03:48 -0.48781 122.96031 22068 ft 395 kts 356°
2026-05-05 03:48 -0.46053 122.95760 21633 ft 392 kts 356°
2026-05-05 03:48 -0.43345 122.95491 21187 ft 389 kts 356°
2026-05-05 03:49 -0.40661 122.95224 20753 ft 386 kts 356°
2026-05-05 03:49 -0.37996 122.94959 20319 ft 383 kts 356°
2026-05-05 03:49 -0.35354 122.94697 19889 ft 380 kts 355°
2026-05-05 03:49 -0.32727 122.94436 19449 ft 378 kts 355°
2026-05-05 03:50 -0.30116 122.94176 19024 ft 376 kts 355°
2026-05-05 03:50 -0.27527 122.93920 18601 ft 373 kts 355°
2026-05-05 03:50 -0.24950 122.93663 18182 ft 371 kts 355°
2026-05-05 03:50 -0.22391 122.93409 17759 ft 368 kts 355°
2026-05-05 03:51 -0.19851 122.93263 17339 ft 362 kts
2026-05-05 03:51 -0.17384 122.93620 16642 ft 358 kts 14°
2026-05-05 03:51 -0.14976 122.94209 15978 ft 356 kts 15°
2026-05-05 03:51 -0.12583 122.94818 15318 ft 353 kts 15°
2026-05-05 03:52 -0.10216 122.95423 14680 ft 350 kts 15°
2026-05-05 03:52 -0.07857 122.96021 13959 ft 349 kts 14°
2026-05-05 03:52 -0.05551 122.96599 13426 ft 343 kts 14°
2026-05-05 03:52 -0.03248 122.97172 12804 ft 340 kts 14°
2026-05-05 03:53 -0.00937 122.97744 12281 ft 334 kts 14°
2026-05-05 03:53 0.01270 122.98288 11873 ft 330 kts 14°
2026-05-05 03:53 0.03485 122.98834 11598 ft 325 kts 14°
2026-05-05 03:53 0.05674 122.99373 11234 ft 324 kts 14°
2026-05-05 03:54 0.07855 122.99910 10868 ft 322 kts 14°
2026-05-05 03:54 0.10019 123.00442 10602 ft 317 kts 14°
2026-05-05 03:54 0.12128 123.00961 10467 ft 308 kts 14°
2026-05-05 03:54 0.14181 123.01466 10326 ft 300 kts 14°
2026-05-05 03:55 0.16176 123.01957 10194 ft 291 kts 14°
2026-05-05 03:55 0.18119 123.02435 10041 ft 285 kts 14°
2026-05-05 03:55 0.20041 123.02908 9749 ft 283 kts 14°
2026-05-05 03:55 0.21947 123.03376 9472 ft 282 kts 14°
2026-05-05 03:56 0.23845 123.03843 9186 ft 280 kts 13°
2026-05-05 03:56 0.25733 123.04308 8901 ft 279 kts 14°
2026-05-05 03:56 0.27616 123.04771 8613 ft 278 kts 14°
2026-05-05 03:56 0.29493 123.05233 8327 ft 277 kts 14°
2026-05-05 03:57 0.31365 123.05693 8027 ft 277 kts 14°
2026-05-05 03:57 0.33230 123.06152 7746 ft 276 kts 14°
2026-05-05 03:57 0.35094 123.06611 7462 ft 275 kts 14°
2026-05-05 03:57 0.36948 123.07067 7179 ft 274 kts 14°
2026-05-05 03:58 0.38799 123.07523 6898 ft 273 kts 14°
2026-05-05 03:58 0.40641 123.07973 6623 ft 272 kts 13°
2026-05-05 03:58 0.42485 123.08361 6245 ft 273 kts
2026-05-05 03:58 0.44361 123.08609 5927 ft 268 kts
2026-05-05 03:59 0.46163 123.08818 5842 ft 253 kts
2026-05-05 03:59 0.47866 123.09021 5740 ft 239 kts
2026-05-05 03:59 0.49467 123.09220 5633 ft 225 kts
2026-05-05 03:59 0.50972 123.09412 5510 ft 212 kts
2026-05-05 04:00 0.52392 123.09597 5373 ft 200 kts
2026-05-05 04:00 0.53749 123.09775 5156 ft 194 kts
2026-05-05 04:00 0.55096 123.09952 4817 ft 195 kts
2026-05-05 04:00 0.56430 123.10112 4584 ft 190 kts
2026-05-05 04:01 0.57724 123.09976 4477 ft 188 kts 345°
2026-05-05 04:01 0.58930 123.09451 4405 ft 197 kts 327°
2026-05-05 04:01 0.59991 123.08527 4180 ft 202 kts 307°
2026-05-05 04:01 0.60583 123.07286 3970 ft 196 kts 281°
2026-05-05 04:02 0.60899 123.05992 3915 ft 184 kts 282°
2026-05-05 04:02 0.61157 123.04750 3722 ft 187 kts 278°
2026-05-05 04:02 0.61349 123.03497 3484 ft 177 kts 276°
2026-05-05 04:02 0.61508 123.02311 3255 ft 168 kts 276°
2026-05-05 04:03 0.61652 123.01182 3085 ft 160 kts 276°
2026-05-05 04:03 0.61793 123.00072 2833 ft 159 kts 276°
2026-05-05 04:03 0.61929 122.99003 2679 ft 153 kts 276°
2026-05-05 04:03 0.62065 122.97930 2450 ft 157 kts 276°
2026-05-05 04:04 0.62203 122.96837 2225 ft 159 kts 276°
2026-05-05 04:04 0.62342 122.95744 1997 ft 158 kts 276°
2026-05-05 04:04 0.62481 122.94656 1783 ft 159 kts 277°
2026-05-05 04:04 0.62618 122.93569 1588 ft 158 kts 275°
2026-05-05 04:05 0.62756 122.92489 1401 ft 155 kts 276°
2026-05-05 04:05 0.62892 122.91404 1161 ft 158 kts 277°
2026-05-05 04:05 0.63027 122.90325 957 ft 157 kts 276°
2026-05-05 04:05 0.63136 122.89273 753 ft 147 kts 277°
2026-05-05 04:06 0.63300 122.88254 547 ft 158 kts 277°
2026-05-05 04:06 0.63445 122.87166 361 ft 160 kts 277°
2026-05-05 04:06 0.63570 122.86099 157 ft 150 kts 276°
2026-05-05 04:06 0.63692 122.85142 112 ft 122 kts 278°
2026-05-05 04:07 0.63776 122.84474 117 ft 47 kts 277°
2026-05-05 04:07 0.63796 122.84342 118 ft 6 kts 296°
2026-05-05 04:07 0.63833 122.84333 120 ft 2 kts
2026-05-05 04:07 0.63850 122.84335 120 ft 3 kts
2026-05-05 04:08 0.63874 122.84339 116 ft 4 kts
2026-05-05 04:08 0.63900 122.84343 118 ft 4 kts
2026-05-05 04:08 0.63927 122.84348 119 ft 4 kts
2026-05-05 04:08 0.63951 122.84359 118 ft 4 kts 45°
2026-05-05 04:09 0.63958 122.84384 120 ft 4 kts 94°
2026-05-05 04:09 0.63955 122.84410 120 ft 4 kts 96°
2026-05-05 04:09 0.63952 122.84436 120 ft 4 kts 95°
2026-05-05 04:09 0.63956 122.84460 120 ft 4 kts 62°
2026-05-05 04:10 0.63979 122.84465 122 ft 4 kts
2026-05-05 04:10 0.64003 122.84468 122 ft 2 kts
2026-05-05 04:10 0.64014 122.84470 122 ft 1 kts